This demonstration page uses our WeatherBlox Daily Observations layout. Learn more.

Left ArrowRight Arrow

39.01783, -85.05884

Hourly Observations for April 18, 2019

Temp ( °F °C ) Dew Point ( °F °C ) Humidity (%) Winds ( mph kmh ) Pressure ( in mb ) Visibility ( mi km ) Precip ( " mm )
12:52 am 00:52 Mostly Clear 69 20.6 46 7.8 44 44 SSW 16 26 29.77 1008 10 16 N/A
1:52 am 01:52 Partly Cloudy 68 20 46 7.8 45 45 S 12 19 29.75 1008 10 16 N/A
2:52 am 02:52 Mostly Cloudy 67 19.4 47 8.3 49 49 SSW 9 15 29.75 1008 10 16 N/A
3:52 am 03:52 Cloudy 68 20 47 8.3 47 47 SSW 10 17 29.75 1007 10 16 N/A
4:52 am 04:52 Mostly Cloudy 67 19.4 48 8.9 51 51 SSW 10 17 29.74 1007 10 16 N/A
5:52 am 05:52 Mostly Cloudy 67 19.4 49 9.4 53 53 SSW 15 24 29.74 1007 10 16 N/A
6:52 am 06:52 Mostly Cloudy 66 18.9 49 9.4 54 54 SSW 12 19 29.75 1007 10 16 N/A
7:52 am 07:52 Cloudy 66 18.9 50 10 56 56 SSW 10 17 29.76 1008 10 16 N/A
8:52 am 08:52 Cloudy 67 19.4 52 11.1 59 59 SSW 14 22 29.75 1008 10 16 N/A
9:52 am 09:52 Cloudy 68 20 53 11.7 59 59 SSW 15 24 29.78 1008 10 16 N/A
10:52 am 10:52 Cloudy 71 21.7 55 12.8 57 57 SSW 22 35 29.75 1008 10 16 N/A
11:52 am 11:52 Cloudy 71 21.7 55 12.8 57 57 SSW 21 33 29.73 1007 10 16 N/A
12:52 pm 12:52 Mostly Cloudy 74 23.3 55 12.8 52 52 SSW 15 24 29.70 1006 10 16 N/A
1:52 pm 13:52 Cloudy 71 21.7 54 12.2 55 55 SSW 18 30 29.70 1006 10 16 N/A
2:52 pm 14:52 Cloudy 73 22.8 54 12.2 51 51 SSW 22 35 29.67 1005 10 16 N/A
3:52 pm 15:52 Mostly Cloudy 77 25 54 12.2 45 45 S 20 31 29.64 1004 10 16 N/A
4:52 pm 16:52 Mostly Cloudy 75 23.9 53 11.7 46 46 SSW 14 22 29.62 1003 10 16 N/A
5:52 pm 17:52 Mostly Cloudy 75 23.9 51 10.6 43 43 SW 15 24 29.61 1003 10 16 N/A
6:52 pm 18:52 Cloudy 74 23.3 53 11.7 48 48 S 10 17 29.59 1002 10 16 N/A
7:52 pm 19:52 Cloudy 71 21.7 55 12.8 57 57 S 7 11 29.57 1001 10 16 N/A
8:52 pm 20:52 Cloudy 71 21.7 53 11.7 53 53 S 6 9 29.57 1001 10 16 N/A
9:31 pm 21:31 Cloudy 68 20 57 13.9 68 68 WNW 20 31 29.61 1003 10 16 N/A
9:52 pm 21:52 Cloudy 65 18.3 59 15 81 81 WNW 13 20 29.62 1003 10 16 N/A
10:52 pm 22:52 Cloudy 63 17.2 58 14.4 84 84 WNW 6 9 29.60 1002 10 16 N/A
11:52 pm 23:52 Cloudy 61 16.1 55 12.8 81 81 NNW 13 20 29.59 1002 10 16 N/A

Powered by AerisWeather